Terug naar catalogus

STARLINK-11257

ActiefCommunicatieVLEO
NORAD 61201·PAYLOAD·🇺🇸 United States

Gelanceerd Sep 20, 2024 vanaf Vandenberg Space Force Base

Loading…

Volgende Passages (komende 24 uur)

TLE

VersSource: CelesTrak SupGP

Epoch: Sep 15, 2026, 03:00 UTC

1 61201C 24171B   26258.12548611  .00039707  00000+0  32697-3 0  2589
2 61201  53.1566 322.5436 0001197  86.9911 141.4644 15.69697307    13

Volg STARLINK-11257 in realtime met AllMySat

Download on the App Store